CW0395 Weather Reports


Display with metric or nautical units.
time (UTC)temp
F
wind
direction
speed
MPH
gust
MPH
rain 1hr
in
rain 24hr
in
rain mn
in
humidity
%
barometer
mb
20260508175005 66 299 5.0 16.0 0.00 0.00 0.00 56 1013.4
20260508173005 63 184 4.0 10.0 0.00 0.00 0.00 57 1013.8
20260508172003 62 193 3.0 9.0 0.00 0.00 0.00 57 1014.1
20260508171003 62 278 4.0 15.0 0.00 0.00 0.00 57 1014.1
20260508170003 62 322 3.0 11.0 0.00 0.00 0.00 57 1014.3
20260508165003 63 273 5.0 11.0 0.00 0.00 0.00 56 1014.5
20260508164003 63 243 4.0 10.0 0.00 0.00 0.00 58 1014.4
20260508163003 62 215 1.0 6.0 0.00 0.00 0.00 58 1014.5
20260508162004 62 339 2.0 7.0 0.00 0.00 0.00 57 1014.6
20260508161004 62 304 2.0 5.0 0.00 0.00 0.00 58 1014.8
20260508160003 61 340 3.0 8.0 0.00 0.00 0.00 59 1014.9
20260508155003 60 235 2.0 9.0 0.00 0.00 0.00 59 1014.8
20260508154003 59 189 3.0 9.0 0.00 0.00 0.00 59 1014.9
20260508153002 59 281 3.0 10.0 0.00 0.00 0.00 60 1014.9
20260508152004 58 302 3.0 10.0 0.00 0.00 0.00 60 1015.0
20260508151448 57 258 3.0 9.0 0.00 0.00 0.00 62 1015.3
20260508150002 56 279 3.0 9.0 0.00 0.00 0.00 64 1015.3
20260508145003 55 206 2.0 8.0 0.00 0.00 0.00 65 1015.3
20260508144448 55 286 3.0 6.0 0.00 0.00 0.00 66 1015.3
20260508143003 54 301 1.0 7.0 0.00 0.00 0.00 67 1015.3
20260508142003 53 339 2.0 5.0 0.00 0.00 0.00 66 1015.3
20260508141003 53 254 2.0 7.0 0.00 0.00 0.00 66 1015.4
20260508140002 53 209 1.0 7.0 0.00 0.00 0.00 66 1015.2
20260508135003 53 293 2.0 6.0 0.00 0.00 0.00 66 1015.3
20260508134003 53 212 2.0 8.0 0.00 0.00 0.00 66 1015.3
20260508133003 53 344 3.0 9.0 0.00 0.00 0.00 66 1015.2
20260508132003 53 212 3.0 12.0 0.00 0.00 0.00 65 1015.3
20260508131442 53 311 3.0 10.0 0.00 0.00 0.00 64 1015.2
20260508130002 53 182 3.0 13.0 0.00 0.00 0.00 65 1015.2
20260508125441 52 196 3.0 8.0 0.00 0.00 0.00 66 1015.0
20260508124003 52 204 3.0 10.0 0.00 0.00 0.00 67 1015.0
20260508123002 52 294 2.0 8.0 0.00 0.00 0.00 68 1015.1
20260508122003 51 182 3.0 10.0 0.00 0.00 0.00 67 1014.9
20260508121003 51 209 2.0 8.0 0.00 0.00 0.00 69 1015.0
20260508120000 51 202 3.0 10.0 0.00 0.00 0.00 68 1014.9
20260508115002 51 166 2.0 6.0 0.00 0.00 0.00 68 1014.9
20260508114000 50 194 2.0 9.0 0.00 0.00 0.00 70 1014.9
20260508113003 49 205 3.0 8.0 0.00 0.00 0.00 69 1014.8
20260508111959 49 210 2.0 7.0 0.00 0.00 0.00 70 1014.8
20260508110958 48 200 1.0 8.0 0.00 0.00 0.00 72 1014.6
20260508105959 47 263 0.0 3.0 0.00 0.00 0.00 73 1014.7
20260508104956 47 219 0.0 3.0 0.00 0.00 0.00 72 1014.6
20260508103957 47 305 1.0 5.0 0.00 0.00 0.00 72 1014.5
20260508103439 47 270 1.0 6.0 0.00 0.00 0.00 72 1014.4
20260508101954 47 190 1.0 7.0 0.00 0.00 0.00 72 1014.4
20260508101441 47 247 1.0 4.0 0.00 0.00 0.00 71 1014.3
20260508095954 46 186 1.0 4.0 0.00 0.00 0.00 72 1014.3
20260508095440 46 216 1.0 5.0 0.00 0.00 0.00 71 1014.2
20260508093954 47 171 1.0 4.0 0.00 0.00 0.00 72 1014.4
20260508092954 47 182 0.0 1.0 0.00 0.00 0.00 71 1014.4
20260508091954 47 186 1.0 4.0 0.00 0.00 0.00 71 1014.5
20260508091432 47 193 2.0 5.0 0.00 0.00 0.00 70 1014.5
20260508085955 47 244 2.0 6.0 0.00 0.00 0.00 71 1014.6
20260508084953 47 285 1.0 4.0 0.00 0.00 0.00 72 1014.6
20260508083948 46 202 0.0 6.0 0.00 0.00 0.00 73 1014.5
20260508082949 46 221 0.0 4.0 0.00 0.00 0.00 75 1014.5
20260508081948 45 148 0.0 0.0 0.00 0.00 0.00 77 1014.6
20260508080948 45 97 0.0 0.0 0.00 0.00 0.00 78 1014.5
20260508075948 45 207 0.0 0.0 0.00 0.00 0.00 78 1014.6
20260508075424 45 207 0.0 0.0 0.00 0.00 0.00 79 1014.6
20260508073946 45 178 0.0 0.0 0.00 0.00 0.00 79 1014.7
20260508072940 45 192 0.0 0.0 0.00 0.00 0.00 79 1014.8
20260508071940 46 16 0.0 0.0 0.00 0.00 0.00 80 1014.9
20260508070940 46 15 0.0 0.0 0.00 0.00 0.00 79 1014.9
20260508065940 47 15 0.0 0.0 0.00 0.00 0.00 78 1015.1
20260508064940 48 298 0.0 0.0 0.00 0.00 0.00 77 1015.2
20260508063940 49 298 1.0 4.0 0.00 0.00 0.00 75 1015.3
20260508062941 49 94 0.0 0.0 0.00 0.00 0.00 73 1015.3
20260508061940 50 342 0.0 0.0 0.00 0.00 0.00 71 1015.5
20260508060940 50 338 0.0 0.0 0.00 0.00 0.00 69 1015.5
20260508055934 51 333 0.0 0.0 0.00 0.00 0.00 66 1015.5
20260508054934 51 311 1.0 3.0 0.00 0.00 0.00 65 1015.2
20260508054410 51 217 1.0 5.0 0.00 0.00 0.00 63 1015.2
20260508052935 51 176 2.0 6.0 0.00 0.00 0.00 63 1015.1
20260508052416 50 192 2.0 5.0 0.00 0.00 0.00 64 1015.0
20260508050934 50 142 2.0 4.0 0.00 0.00 0.00 65 1015.0
20260508050409 50 202 2.0 5.0 0.00 0.00 0.00 64 1015.0
20260508042929 50 177 1.0 4.0 0.00 0.00 0.00 64 1015.2
20260508041929 50 142 1.0 3.0 0.00 0.00 0.00 65 1015.2
20260508040929 50 232 1.0 5.0 0.00 0.00 0.00 67 1015.2
20260508035929 49 144 1.0 3.0 0.00 0.00 0.00 67 1015.3
20260508034929 48 155 0.0 3.0 0.00 0.00 0.00 69 1015.2
20260508033929 48 161 0.0 0.0 0.00 0.00 0.00 69 1015.1
20260508032929 48 175 0.0 0.0 0.00 0.00 0.00 70 1015.1
20260508031929 48 186 0.0 3.0 0.00 0.00 0.00 69 1015.1
20260508031407 47 167 0.0 1.0 0.00 0.00 0.00 71 1015.2
20260508025929 46 253 0.0 1.0 0.00 0.00 0.00 73 1015.2
20260508024928 46 253 0.0 1.0 0.00 0.00 0.00 73 1015.3
20260508023929 46 253 0.0 1.0 0.00 0.00 0.00 71 1015.3
20260508022929 47 253 0.0 1.0 0.00 0.00 0.00 70 1015.0
20260508021929 47 253 0.0 2.0 0.00 0.00 0.00 70 1015.2
20260508020930 48 175 0.0 0.0 0.00 0.00 0.00 71 1015.0
20260508015929 48 175 0.0 0.0 0.00 0.00 0.00 71 1015.0
20260508014928 49 194 0.0 0.0 0.00 0.00 0.00 68 1015.1
20260508013929 49 194 0.0 0.0 0.00 0.00 0.00 67 1015.1
20260508012929 50 194 0.0 2.0 0.00 0.00 0.00 64 1015.0
20260508011930 50 214 0.0 2.0 0.00 0.00 0.00 64 1015.0
20260508010929 50 258 0.0 1.0 0.00 0.00 0.00 63 1014.9
20260508005929 51 269 0.0 0.0 0.00 0.00 0.00 61 1014.9
20260508005409 52 269 0.0 0.0 0.00 0.00 0.00 59 1014.9
20260508003930 53 269 0.0 0.0 0.00 0.00 0.00 58 1014.8
20260508002929 54 269 0.0 0.0 0.00 0.00 0.00 57 1014.8
20260508001929 54 269 0.0 0.0 0.00 0.00 0.00 54 1014.8
20260508000929 55 269 0.0 2.0 0.00 0.00 0.00 51 1014.7
20260508000405 56 313 0.0 2.0 0.00 0.00 0.00 50 1014.5
20260507234928 57 254 1.0 4.0 0.00 0.00 0.00 47 1014.4
20260507233930 57 285 1.0 3.0 0.00 0.00 0.00 47 1014.5
20260507233407 57 281 2.0 6.0 0.00 0.00 0.00 45 1014.5
20260507231929 57 299 2.0 7.0 0.00 0.00 0.00 46 1014.5
20260507230930 58 315 1.0 4.0 0.00 0.00 0.00 45 1014.4
20260507225929 58 313 1.0 4.0 0.00 0.00 0.00 47 1014.4
20260507224929 58 61 1.0 4.0 0.00 0.00 0.00 46 1014.5
20260507223929 57 299 2.0 4.0 0.00 0.00 0.00 46 1014.6
20260507223409 57 251 2.0 7.0 0.00 0.00 0.00 45 1014.7
20260507221929 58 157 2.0 5.0 0.00 0.00 0.00 44 1014.7
20260507220929 59 335 2.0 6.0 0.00 0.00 0.00 45 1014.7
20260507215929 58 293 1.0 4.0 0.00 0.00 0.00 48 1014.8
20260507214928 58 5 2.0 6.0 0.00 0.00 0.00 45 1014.7
20260507213930 58 292 2.0 6.0 0.00 0.00 0.00 44 1014.5
20260507212929 59 300 3.0 8.0 0.00 0.00 0.00 44 1014.6
20260507211928 61 288 3.0 9.0 0.00 0.00 0.00 44 1014.5
20260507210929 60 295 2.0 7.0 0.00 0.00 0.00 47 1014.3
20260507205929 60 296 3.0 6.0 0.00 0.00 0.00 47 1014.3
20260507204929 60 290 3.0 8.0 0.00 0.00 0.00 48 1014.4
20260507203930 60 337 4.0 10.0 0.00 0.00 0.00 44 1014.5
20260507202929 59 286 3.0 7.0 0.00 0.00 0.00 49 1014.4
20260507201929 59 339 3.0 8.0 0.00 0.00 0.00 48 1014.3
20260507200929 58 305 3.0 8.0 0.00 0.00 0.00 47 1014.5
20260507195929 59 295 3.0 8.0 0.00 0.00 0.00 51 1014.5
20260507194929 59 290 3.0 9.0 0.00 0.00 0.00 52 1014.4
20260507193929 59 297 4.0 9.0 0.00 0.00 0.00 50 1014.6
20260507192929 59 321 3.0 9.0 0.00 0.00 0.00 47 1014.7
20260507191929 59 287 4.0 10.0 0.00 0.00 0.00 49 1014.8
20260507190930 58 281 3.0 10.0 0.00 0.00 0.00 48 1014.7
20260507185929 58 276 4.0 10.0 0.00 0.00 0.00 49 1014.9
20260507184929 58 240 4.0 12.0 0.00 0.00 0.00 48 1014.9
20260507183930 58 273 4.0 11.0 0.00 0.00 0.00 54 1015.0
20260507182930 58 309 4.0 9.0 0.00 0.00 0.00 52 1015.0
20260507181930 58 317 4.0 9.0 0.00 0.00 0.00 50 1014.9
20260507180931 57 273 4.0 8.0 0.00 0.00 0.00 53 1014.8
20260507180411 57 17 3.0 10.0 0.00 0.00 0.00 53 1014.8